• In Kazakhstan
  • List of Countries
  • For 7 days
  • Water Temperature
  • Weather Map
  • News
  • Weather Widgets
  • user-avatar
    Login

    Hourly Weather Kabul

    Today, 30 March, Monday

    Time Temperature Precipitation Wind Pressure Humidity
    00:00 +11°C° 0.3 mm 1 mps 608 mmHg 64%
    01:00 +10°C° 0.3 mm 1 mps 608 mmHg 69%
    02:00 +10°C° 0.3 mm 1 mps 608 mmHg 73%
    03:00 +9°C° 1.3 mm 1 mps 607 mmHg 78%
    04:00 +8°C° 1.3 mm 1 mps 606 mmHg 83%
    05:00 +7°C° 0 mm 2 mps 606 mmHg 88%
    06:00 +7°C° 1.5 mm 2 mps 606 mmHg 88%
    07:00 +6°C° 1.5 mm 2 mps 606 mmHg 88%
    08:00 +6°C° 1.5 mm 2 mps 607 mmHg 88%
    09:00 +6°C° 0.8 mm 2 mps 607 mmHg 88%
    10:00 +6°C° 0.8 mm 2 mps 607 mmHg 89%
    11:00 +7°C° 0.8 mm 2 mps 607 mmHg 89%
    12:00 +7°C° 0.2 mm 2 mps 607 mmHg 89%
    13:00 +7°C° 0.2 mm 2 mps 606 mmHg 89%
    14:00 +7°C° 0.2 mm 2 mps 606 mmHg 89%
    15:00 +7°C° 0 mm 2 mps 606 mmHg 88%
    16:00 +7°C° 0 mm 2 mps 606 mmHg 86%
    17:00 +7°C° 0 mm 2 mps 605 mmHg 85%
    18:00 +7°C° 0 mm 2 mps 606 mmHg 85%
    19:00 +7°C° 0 mm 2 mps 606 mmHg 86%
    20:00 +7°C° 0 mm 2 mps 606 mmHg 86%
    21:00 +7°C° 1.2 mm 2 mps 606 mmHg 88%
    22:00 +6°C° 1.2 mm 2 mps 605 mmHg 89%
    23:00 +6°C° 1.2 mm 2 mps 605 mmHg 91%

    Tomorrow, 31 March, Tuesday

    Time Temperature Precipitation Wind Pressure Humidity
    00:00 +6°C° 2.2 mm 2 mps 605 mmHg 92%
    01:00 +5°C° 2.2 mm 2 mps 605 mmHg 93%
    02:00 +6°C° 2.2 mm 1 mps 604 mmHg 95%
    03:00 +5°C° 1.4 mm 2 mps 604 mmHg 95%
    04:00 +5°C° 1.4 mm 2 mps 604 mmHg 95%
    05:00 +5°C° 1.4 mm 2 mps 603 mmHg 96%
    06:00 +5°C° 1.1 mm 2 mps 604 mmHg 96%
    07:00 +6°C° 1.1 mm 2 mps 604 mmHg 96%
    08:00 +6°C° 1.1 mm 2 mps 604 mmHg 95%
    09:00 +6°C° 1.8 mm 2 mps 604 mmHg 95%
    10:00 +6°C° 1.8 mm 2 mps 604 mmHg 95%
    11:00 +5°C° 1.8 mm 2 mps 604 mmHg 95%
    12:00 +6°C° 2.3 mm 1 mps 604 mmHg 95%
    13:00 +6°C° 2.3 mm 1 mps 604 mmHg 95%
    14:00 +6°C° 2.3 mm 1 mps 604 mmHg 95%
    15:00 +6°C° 0.9 mm 1 mps 604 mmHg 95%
    16:00 +6°C° 0.9 mm 1 mps 603 mmHg 94%
    17:00 +6°C° 0.9 mm 1 mps 603 mmHg 94%
    18:00 +6°C° 0 mm 1 mps 604 mmHg 93%
    19:00 +5°C° 0 mm 0 mps 604 mmHg 93%
    20:00 +5°C° 0 mm 0 mps 605 mmHg 92%
    21:00 +5°C° 0 mm 0 mps 605 mmHg 92%
    22:00 +4°C° 0 mm 0 mps 605 mmHg 91%
    23:00 +4°C° 0 mm 0 mps 605 mmHg 90%

    Day after tomorrow, 1 April, Wednesday

    Time Temperature Precipitation Wind Pressure Humidity
    00:00 +5°C° 0 mm 1 mps 605 mmHg 88%
    01:00 +5°C° 0 mm 1 mps 605 mmHg 86%
    02:00 +5°C° 0 mm 1 mps 605 mmHg 84%
    03:00 +5°C° 0 mm 1 mps 605 mmHg 84%
    04:00 +5°C° 0 mm 1 mps 605 mmHg 83%
    05:00 +4°C° 0 mm 1 mps 605 mmHg 82%
    06:00 +5°C° 0 mm 1 mps 606 mmHg 80%
    07:00 +6°C° 0 mm 1 mps 606 mmHg 77%
    08:00 +7°C° 0 mm 1 mps 607 mmHg 75%
    09:00 +8°C° 0 mm 1 mps 607 mmHg 72%
    10:00 +8°C° 0 mm 1 mps 607 mmHg 69%
    11:00 +9°C° 0 mm 1 mps 608 mmHg 66%
    12:00 +10°C° 0.3 mm 1 mps 608 mmHg 62%
    13:00 +11°C° 0.3 mm 1 mps 608 mmHg 58%
    14:00 +12°C° 0.3 mm 1 mps 608 mmHg 54%
    15:00 +12°C° 0.3 mm 2 mps 608 mmHg 51%
    16:00 +12°C° 0.3 mm 2 mps 608 mmHg 48%
    17:00 +11°C° 0.3 mm 3 mps 608 mmHg 45%
    18:00 +10°C° 0.1 mm 2 mps 608 mmHg 49%
    19:00 +9°C° 0.1 mm 2 mps 608 mmHg 53%
    20:00 +9°C° 0.1 mm 2 mps 609 mmHg 57%
    21:00 +8°C° 0 mm 2 mps 608 mmHg 57%
    22:00 +7°C° 0 mm 2 mps 608 mmHg 58%
    23:00 +7°C° 0 mm 2 mps 608 mmHg 58%

    2 April, Thursday

    Time Temperature Precipitation Wind Pressure Humidity
    00:00 +6°C° 0 mm 2 mps 608 mmHg 58%
    01:00 +6°C° 0 mm 2 mps 608 mmHg 57%
    02:00 +5°C° 0 mm 2 mps 608 mmHg 57%
    03:00 +5°C° 0 mm 2 mps 607 mmHg 56%
    04:00 +4°C° 0 mm 2 mps 607 mmHg 56%
    05:00 +4°C° 0 mm 2 mps 607 mmHg 55%
    06:00 +5°C° 0 mm 2 mps 607 mmHg 52%
    07:00 +5°C° 0 mm 2 mps 608 mmHg 49%
    08:00 +6°C° 0 mm 2 mps 608 mmHg 45%
    09:00 +7°C° 0 mm 2 mps 608 mmHg 43%
    10:00 +9°C° 0 mm 2 mps 608 mmHg 41%
    11:00 +10°C° 0 mm 2 mps 609 mmHg 39%
    12:00 +12°C° 0 mm 2 mps 609 mmHg 36%
    13:00 +13°C° 0 mm 2 mps 609 mmHg 33%
    14:00 +14°C° 0 mm 2 mps 609 mmHg 30%
    15:00 +15°C° 0 mm 2 mps 609 mmHg 29%
    16:00 +15°C° 0 mm 2 mps 609 mmHg 28%
    17:00 +15°C° 0 mm 2 mps 609 mmHg 26%
    18:00 +14°C° 0 mm 2 mps 609 mmHg 30%
    19:00 +13°C° 0 mm 2 mps 609 mmHg 33%
    20:00 +10°C° 0 mm 2 mps 609 mmHg 36%
    21:00 +10°C° 0 mm 2 mps 609 mmHg 36%
    22:00 +9°C° 0 mm 2 mps 609 mmHg 36%
    23:00 +9°C° 0 mm 2 mps 608 mmHg 36%

    3 April, Friday

    Time Temperature Precipitation Wind Pressure Humidity
    00:00 +8°C° 0 mm 2 mps 608 mmHg 37%
    01:00 +8°C° 0 mm 2 mps 608 mmHg 37%
    02:00 +8°C° 0 mm 1 mps 608 mmHg 38%
    03:00 +8°C° 0 mm 1 mps 607 mmHg 38%
    04:00 +8°C° 0 mm 1 mps 607 mmHg 38%
    05:00 +7°C° 0 mm 1 mps 607 mmHg 39%
    06:00 +7°C° 0 mm 2 mps 608 mmHg 37%
    07:00 +8°C° 0 mm 2 mps 608 mmHg 36%
    08:00 +9°C° 0 mm 2 mps 609 mmHg 34%
    09:00 +10°C° 0 mm 2 mps 609 mmHg 33%
    10:00 +13°C° 0 mm 2 mps 609 mmHg 32%
    11:00 +14°C° 0 mm 2 mps 610 mmHg 30%
    12:00 +15°C° 0 mm 1 mps 610 mmHg 29%
    13:00 +16°C° 0 mm 1 mps 610 mmHg 28%
    14:00 +18°C° 0 mm 1 mps 610 mmHg 27%
    15:00 +18°C° 0 mm 1 mps 610 mmHg 26%
    16:00 +18°C° 0 mm 1 mps 610 mmHg 26%
    17:00 +18°C° 0 mm 1 mps 610 mmHg 25%
    18:00 +16°C° 0 mm 1 mps 610 mmHg 30%
    19:00 +15°C° 0 mm 1 mps 610 mmHg 35%
    20:00 +14°C° 0 mm 1 mps 610 mmHg 40%
    21:00 +14°C° 0 mm 1 mps 610 mmHg 41%
    22:00 +13°C° 0 mm 1 mps 610 mmHg 42%
    23:00 +13°C° 0 mm 1 mps 610 mmHg 43%

    4 April, Saturday

    Time Temperature Precipitation Wind Pressure Humidity
    00:00 +13°C° 0 mm 1 mps 609 mmHg 44%
    01:00 +12°C° 0 mm 1 mps 609 mmHg 46%
    02:00 +11°C° 0 mm 0 mps 609 mmHg 47%
    03:00 +10°C° 0 mm 0 mps 609 mmHg 47%
    04:00 +11°C° 0 mm 1 mps 608 mmHg 47%
    05:00 +11°C° 0 mm 1 mps 608 mmHg 47%
    06:00 +11°C° 0 mm 0 mps 609 mmHg 44%
    07:00 +11°C° 0 mm 0 mps 609 mmHg 40%
    08:00 +12°C° 0 mm 0 mps 610 mmHg 37%
    09:00 +13°C° 0 mm 0 mps 610 mmHg 36%
    10:00 +15°C° 0 mm 1 mps 610 mmHg 35%
    11:00 +16°C° 0 mm 1 mps 610 mmHg 34%
    12:00 +18°C° 0 mm 1 mps 610 mmHg 33%
    13:00 +18°C° 0 mm 1 mps 610 mmHg 32%
    14:00 +19°C° 0 mm 1 mps 611 mmHg 31%
    15:00 +19°C° 0 mm 1 mps 610 mmHg 30%
    16:00 +19°C° 0 mm 1 mps 610 mmHg 30%
    17:00 +19°C° 0 mm 1 mps 610 mmHg 30%
    18:00 +18°C° 0.1 mm 1 mps 610 mmHg 35%
    19:00 +16°C° 0.1 mm 1 mps 610 mmHg 41%
    20:00 +15°C° 0.1 mm 1 mps 610 mmHg 47%
    21:00 +15°C° 0.1 mm 1 mps 610 mmHg 48%
    22:00 +14°C° 0.1 mm 1 mps 610 mmHg 50%
    23:00 +14°C° 0.1 mm 1 mps 610 mmHg 52%
    Show more